Weather Roundup
Issued by NWS

Home | Current Version | Previous Version | Graphics & Text | Print | Product List | Glossary Off
Versions: 1 2 3 4 5 6 7 8 9 10 11 12 13 14 15 16 17 18 19 20 21 22 23 24 25 26 27 28 29 30 31 32 33 34 35 36 37 38 39 40 41 42 43 44 45 46 47 48 49 50

000
NZUS93 KARX 240110
HRRWXR

CURRENT HOURLY OBSERVATIONS ACROSS
MUCH OF THE UPPER MISSISSIPPI VALLEY
NATIONAL WEATHER SERVICE LA CROSSE WI
800 PM CDT THU MAR 23 2017


...SOUTHEAST MINNESOTA...


CITY           SKY/WX    TMP DP  RH WIND       PRES   REMARKS
ROCHESTER      CLOUDY    39  37  92 S30       29.85S WCI  27
ROCHESTER/MAYO CLOUDY    38  37  98 E3        29.88R
WINONA         CLOUDY    37  34  87 SE10      29.89S WCI  30
AUSTIN         CLOUDY    37  36  93 CALM      29.87R
ALBERT LEA     CLOUDY    37  37 100 E10       29.83F WCI  30
DODGE CENTER   MOCLDY    37  36  93 SE5       29.85R WCI  34
PRESTON        LGT RAIN  37  35  90 S13G32    29.84R WCI  29
OWATONNA       CLOUDY    39  36  87 E9        29.81F WCI  33
FARIBAULT      CLOUDY    39  37  93 SE12      29.83F WCI  32
$$

...ELSEWHERE IN MINNESOTA...


CITY           SKY/WX    TMP DP  RH WIND       PRES   REMARKS
MINNEAPOLIS    DRIZZLE   39  34  82 SE9       29.85R WCI  33
INTNL FALLS    CLOUDY    33  31  92 SW3       29.84R
DULUTH         LGT RAIN  33  30  88 NW5       29.90R WCI  29
RED WING       CLOUDY    41  32  70 S9        29.88R
REDWOOD FALLS  CLOUDY    39  34  82 E12       29.76F WCI  32
MANKATO        NOT AVBL
WORTHINGTON    CLOUDY    41  36  82 SE14      29.71F
FAIRMONT       CLOUDY    40  35  83 E16       29.75F WCI  31
$$

...SOUTHWEST WISCONSIN...


CITY           SKY/WX    TMP DP  RH WIND       PRES   REMARKS
LA CROSSE      CLOUDY    40  36  86 SE10      29.88F WCI  33
PRAIRIE DU CHI CLOUDY    37  36  96 SE8       29.92F WCI  31
BOSCOBEL       CLOUDY    40  33  76 VRB5      29.91F
LONE ROCK      CLOUDY    38  34  85 SE13      29.94F WCI  30
PLATTEVILLE    CLOUDY    40  34  80 SE12      29.96F WCI  32
FORT MC COY    CLOUDY    39  35  87 SE6       29.91F WCI  35
CAMP DOUGLAS   CLOUDY    38  33  82 SE13      29.90F WCI  31
MAUSTON-NEW LI CLOUDY    39  33  80 SE8       29.92R HAZE    WCI  33
VIROQUA        MOCLDY    36  35  94 SE14      29.91R WCI  27
WIS DELLS      CLOUDY    36  33  89 SE14      29.94F WCI  27
$$

...ELSEWHERE IN WISCONSIN...


CITY           SKY/WX    TMP DP  RH WIND       PRES   REMARKS
MILWAUKEE      LGT RAIN  44  29  55 SE14G21   30.03R
MADISON        CLOUDY    38  35  89 SE14      30.00R THUNDER WCI  30
GREEN BAY      CLOUDY    37  29  72 S12       30.06S WCI  29
EAU CLAIRE     CLOUDY    41  29  62 S10       29.88R
BLACK RVR FLS  CLOUDY    39  35  85 S6        29.90S WCI  35
MEDFORD        RAIN      36  25  65 SE13G18   29.86F WCI  27
WAUSAU         LGT RAIN  38  24  57 SE12      29.91F WCI  30
WIS RAPIDS     LGT RAIN  40  30  67 S7        29.95S
MARSHFIELD     CLOUDY    37  28  70 SE12      29.87F WCI  29
RICE LAKE      CLOUDY    39  26  59 S6        29.88R
$$

...NORTHEAST IOWA...


CITY           SKY/WX    TMP DP  RH WIND       PRES   REMARKS
WATERLOO       CLOUDY    41  36  82 SE13      29.85F
DUBUQUE        MOCLDY    39  32  76 SE9       29.95R WCI  33
DECORAH        CLOUDY    39  34  81 SE16G24   29.86F WCI  30
MASON CITY     CLOUDY    40  37  89 SE16G32   29.82S WCI  31
CHARLES CITY   CLOUDY    41  41 100 SE18      29.86S
OELWEIN        CLOUDY    41  37  87 SE20G29   29.86
$$

...ELSEWHERE IN IOWA...


CITY           SKY/WX    TMP DP  RH WIND       PRES   REMARKS
DES MOINES     CLOUDY    53  38  56 E10       29.75F
IOWA CITY      PTCLDY    46  38  73 SE12      29.89F
FORT DODGE     CLOUDY    46  36  66 NE6       29.79R
MARSHALLTOWN   MOCLDY    47  38  71 SE22G28   29.77F
CEDAR RAPIDS   CLOUDY    43  38  82 SE13      29.86F
$$

...NORTHERN ILLINOIS...


CITY           SKY/WX    TMP DP  RH WIND       PRES   REMARKS
CHICAGO-OHARE  TSTM      46  32  58 S18G30    30.04F
CHICAGO-MIDWAY CLOUDY    49  32  52 S14       30.08F THUNDER
MOLINE         CLOUDY    44  35  70 SE9       29.91F
ROCKFORD       CLOUDY    44  32  62 SE15      30.03R
PEORIA         CLEAR     45  37  73 S16       30.00F
$$

NOTE: "FAIR" INDICATES FEW OR NO CLOUDS BELOW 12,000 FEET WITH NO
SIGNIFICANT WEATHER AND/OR OBSTRUCTIONS TO VISIBILITY. WIND
SPEEDS ARE IN MILES-PER-HOUR.




USA.gov is the U.S. government's official web portal to all federal, state and local government web resources and services.